• In Hungary
  • List of Countries
  • For 7 days
  • Water Temperature
  • Satellite Maps
  • Weather Map
  • News
  • Weather Widgets
  • user-avatar
    Login

    Hourly Weather Sosnovskiy

    Today, 15 July, Sunday

    Time Temperature Precipitation Wind Pressure Humidity
    00:00 +21°C° 0.3 mm 1 mps 746 mmHg 89%
    01:00 +20°C° 0 mm 1 mps 746 mmHg 90%
    02:00 +20°C° 0 mm 1 mps 747 mmHg 91%
    03:00 +20°C° 0 mm 1 mps 747 mmHg 91%
    04:00 +21°C° 0 mm 1 mps 747 mmHg 89%
    05:00 +21°C° 0 mm 2 mps 747 mmHg 86%
    06:00 +23°C° 0 mm 2 mps 747 mmHg 84%
    07:00 +24°C° 0.1 mm 2 mps 747 mmHg 78%
    08:00 +26°C° 0.1 mm 2 mps 747 mmHg 73%
    09:00 +27°C° 0 mm 2 mps 747 mmHg 66%
    10:00 +28°C° 0 mm 2 mps 747 mmHg 62%
    11:00 +29°C° 0 mm 2 mps 747 mmHg 58%
    12:00 +30°C° 0 mm 2 mps 747 mmHg 54%
    13:00 +30°C° 0.1 mm 2 mps 747 mmHg 54%
    14:00 +30°C° 0.1 mm 2 mps 747 mmHg 54%
    15:00 +30°C° 0 mm 2 mps 747 mmHg 54%
    16:00 +30°C° 0.4 mm 2 mps 747 mmHg 58%
    17:00 +29°C° 0.4 mm 2 mps 747 mmHg 63%
    18:00 +28°C° 0.4 mm 2 mps 747 mmHg 67%
    19:00 +27°C° 0 mm 2 mps 747 mmHg 72%
    20:00 +25°C° 0 mm 2 mps 747 mmHg 78%
    21:00 +22°C° 0 mm 3 mps 747 mmHg 83%
    22:00 +23°C° 0 mm 2 mps 747 mmHg 84%
    23:00 +21°C° 0 mm 2 mps 747 mmHg 85%

    Tomorrow, 16 July, Monday

    Time Temperature Precipitation Wind Pressure Humidity
    00:00 +21°C° 0 mm 2 mps 747 mmHg 86%
    01:00 +20°C° 0 mm 2 mps 747 mmHg 87%
    02:00 +20°C° 0 mm 2 mps 747 mmHg 88%
    03:00 +20°C° 0 mm 2 mps 747 mmHg 88%
    04:00 +21°C° 0 mm 2 mps 748 mmHg 86%
    05:00 +22°C° 0 mm 3 mps 748 mmHg 83%
    06:00 +22°C° 0 mm 3 mps 748 mmHg 81%
    07:00 +25°C° 0.1 mm 3 mps 748 mmHg 76%
    08:00 +27°C° 0.1 mm 3 mps 748 mmHg 70%
    09:00 +29°C° 0.1 mm 3 mps 748 mmHg 65%
    10:00 +30°C° 0.1 mm 4 mps 748 mmHg 61%
    11:00 +30°C° 0.1 mm 4 mps 747 mmHg 56%
    12:00 +32°C° 0.1 mm 4 mps 747 mmHg 51%
    13:00 +32°C° 0.2 mm 4 mps 747 mmHg 53%
    14:00 +32°C° 0.2 mm 4 mps 747 mmHg 54%
    15:00 +32°C° 0.2 mm 5 mps 747 mmHg 55%
    16:00 +30°C° 0.1 mm 5 mps 747 mmHg 59%
    17:00 +29°C° 0.1 mm 5 mps 747 mmHg 63%
    18:00 +29°C° 0.1 mm 4 mps 747 mmHg 67%
    19:00 +27°C° 0 mm 5 mps 747 mmHg 67%
    20:00 +26°C° 0 mm 5 mps 747 mmHg 67%
    21:00 +25°C° 0 mm 5 mps 747 mmHg 68%
    22:00 +25°C° 0 mm 5 mps 747 mmHg 69%
    23:00 +23°C° 0 mm 4 mps 747 mmHg 71%

    Day after tomorrow, 17 July, Tuesday

    Time Temperature Precipitation Wind Pressure Humidity
    00:00 +22°C° 0 mm 4 mps 747 mmHg 73%
    01:00 +22°C° 0 mm 4 mps 747 mmHg 75%
    02:00 +22°C° 0 mm 4 mps 747 mmHg 77%
    03:00 +21°C° 0 mm 4 mps 747 mmHg 79%
    04:00 +21°C° 0.2 mm 4 mps 746 mmHg 81%
    05:00 +21°C° 0.2 mm 4 mps 746 mmHg 84%
    06:00 +21°C° 0.2 mm 5 mps 746 mmHg 87%
    07:00 +21°C° 0.1 mm 5 mps 746 mmHg 86%
    08:00 +21°C° 0.1 mm 6 mps 745 mmHg 85%
    09:00 +21°C° 0.1 mm 6 mps 745 mmHg 84%
    10:00 +22°C° 0.1 mm 6 mps 745 mmHg 81%
    11:00 +23°C° 0.1 mm 6 mps 744 mmHg 77%
    12:00 +24°C° 0.1 mm 7 mps 744 mmHg 74%
    13:00 +26°C° 0.3 mm 7 mps 744 mmHg 71%
    14:00 +27°C° 0.3 mm 8 mps 743 mmHg 68%
    15:00 +29°C° 0.3 mm 8 mps 742 mmHg 65%
    16:00 +29°C° 0.1 mm 8 mps 742 mmHg 64%
    17:00 +29°C° 0.1 mm 7 mps 742 mmHg 63%
    18:00 +29°C° 0.1 mm 7 mps 742 mmHg 62%
    19:00 +27°C° 0.9 mm 6 mps 742 mmHg 68%
    20:00 +26°C° 0.9 mm 5 mps 742 mmHg 74%
    21:00 +23°C° 0.9 mm 4 mps 742 mmHg 80%
    22:00 +23°C° 0.4 mm 4 mps 743 mmHg 83%
    23:00 +22°C° 0.4 mm 4 mps 743 mmHg 85%

    18 July, Wednesday

    Time Temperature Precipitation Wind Pressure Humidity
    00:00 +21°C° 0.4 mm 3 mps 743 mmHg 88%
    01:00 +21°C° 0 mm 3 mps 743 mmHg 89%
    02:00 +20°C° 0 mm 3 mps 744 mmHg 90%
    03:00 +20°C° 0 mm 3 mps 744 mmHg 91%
    04:00 +20°C° 0 mm 3 mps 744 mmHg 88%
    05:00 +21°C° 0 mm 4 mps 745 mmHg 85%
    06:00 +22°C° 0 mm 4 mps 745 mmHg 82%
    07:00 +23°C° 0 mm 4 mps 745 mmHg 75%
    08:00 +26°C° 0 mm 4 mps 746 mmHg 67%
    09:00 +27°C° 0 mm 5 mps 746 mmHg 59%
    10:00 +28°C° 0 mm 4 mps 746 mmHg 56%
    11:00 +29°C° 0 mm 4 mps 747 mmHg 54%
    12:00 +30°C° 0 mm 4 mps 747 mmHg 51%
    13:00 +30°C° 0.1 mm 3 mps 747 mmHg 52%
    14:00 +30°C° 0.1 mm 3 mps 747 mmHg 52%
    15:00 +30°C° 0.1 mm 3 mps 747 mmHg 52%
    16:00 +30°C° 0 mm 2 mps 747 mmHg 55%
    17:00 +29°C° 0 mm 2 mps 748 mmHg 57%
    18:00 +29°C° 0 mm 1 mps 748 mmHg 60%
    19:00 +27°C° 0 mm 1 mps 748 mmHg 62%
    20:00 +26°C° 0 mm 1 mps 748 mmHg 63%
    21:00 +25°C° 0 mm 1 mps 748 mmHg 65%
    22:00 +24°C° 0 mm 2 mps 748 mmHg 66%
    23:00 +24°C° 0 mm 2 mps 748 mmHg 67%

    19 July, Thursday

    Time Temperature Precipitation Wind Pressure Humidity
    00:00 +23°C° 0 mm 2 mps 748 mmHg 67%
    01:00 +23°C° 0.2 mm 2 mps 749 mmHg 69%
    02:00 +21°C° 0.2 mm 2 mps 749 mmHg 71%
    03:00 +22°C° 0.2 mm 1 mps 749 mmHg 72%
    04:00 +23°C° 0.3 mm 1 mps 749 mmHg 72%
    05:00 +23°C° 0.3 mm 1 mps 749 mmHg 73%
    06:00 +24°C° 0.3 mm 2 mps 749 mmHg 73%
    07:00 +26°C° 0 mm 2 mps 749 mmHg 66%
    08:00 +28°C° 0 mm 2 mps 749 mmHg 60%
    09:00 +30°C° 0 mm 2 mps 750 mmHg 53%
    10:00 +31°C° 0 mm 2 mps 750 mmHg 49%
    11:00 +32°C° 0 mm 1 mps 750 mmHg 45%
    12:00 +33°C° 0 mm 1 mps 750 mmHg 41%
    13:00 +33°C° 0 mm 1 mps 750 mmHg 41%
    14:00 +33°C° 0 mm 1 mps 750 mmHg 41%
    15:00 +31°C° 0 mm 0 mps 749 mmHg 41%
    16:00 +33°C° 0 mm 1 mps 749 mmHg 44%
    17:00 +32°C° 0 mm 1 mps 749 mmHg 48%
    18:00 +31°C° 0 mm 1 mps 749 mmHg 52%
    19:00 +29°C° 0 mm 2 mps 749 mmHg 56%
    20:00 +28°C° 0 mm 2 mps 749 mmHg 59%
    21:00 +26°C° 0 mm 3 mps 749 mmHg 63%
    22:00 +25°C° 0.2 mm 3 mps 750 mmHg 66%
    23:00 +25°C° 0.2 mm 2 mps 750 mmHg 70%

    20 July, Friday

    Time Temperature Precipitation Wind Pressure Humidity
    00:00 +24°C° 0.2 mm 2 mps 750 mmHg 73%
    01:00 +23°C° 0 mm 2 mps 749 mmHg 75%
    02:00 +23°C° 0 mm 2 mps 749 mmHg 77%
    03:00 +22°C° 0 mm 1 mps 749 mmHg 79%
    04:00 +23°C° 0 mm 2 mps 749 mmHg 78%
    05:00 +24°C° 0 mm 2 mps 749 mmHg 77%
    06:00 +25°C° 0 mm 2 mps 750 mmHg 76%
    07:00 +27°C° 0 mm 2 mps 749 mmHg 70%
    08:00 +28°C° 0 mm 2 mps 749 mmHg 64%
    09:00 +30°C° 0 mm 2 mps 749 mmHg 58%
    10:00 +31°C° 0.1 mm 3 mps 749 mmHg 55%
    11:00 +31°C° 0.1 mm 3 mps 749 mmHg 51%
    12:00 +33°C° 0.1 mm 3 mps 749 mmHg 48%
    13:00 +33°C° 0 mm 3 mps 749 mmHg 48%
    14:00 +33°C° 0 mm 3 mps 749 mmHg 49%
    15:00 +33°C° 0 mm 4 mps 749 mmHg 49%
    16:00 +31°C° 0 mm 3 mps 748 mmHg 54%
    17:00 +30°C° 0 mm 3 mps 748 mmHg 59%
    18:00 +30°C° 0 mm 3 mps 748 mmHg 64%
    19:00 +28°C° 0 mm 3 mps 748 mmHg 69%
    20:00 +26°C° 0 mm 2 mps 748 mmHg 74%
    21:00 +25°C° 0 mm 2 mps 748 mmHg 79%
    22:00 +24°C° 0 mm 2 mps 748 mmHg 81%
    23:00 +24°C° 0 mm 2 mps 748 mmHg 83%
    Show more